Location: G�rlitz
(51.1670°N, 15.0000°E)
Time: 20:46:51
(UTC+01:00)

Envisat - Pass Details

Date: 23 February 2026
Orbit: 761 x 763 km, 98.4° (Epoch: 11 March)

Event Time Altitude Azimuth Distance (km) Brightness Sun altitude
Rises 04:45:45 0° 3° (N) 3,237 6.4 -21.3°
Reaches altitude 10° 04:49:02 10° 341° (NNW) 2,306 5.4 -20.8°
Enters shadow 04:50:26 14° 325° (NW) 2,068 5.0 -20.6°
